Regional Weather Roundup
Issued by NWS Kansas City/Pleasant Hill, MO

Home | Current Version | Previous Version | Text Only | Print | Product List | Glossary On
Versions: 1 2 3 4 5 6 7 8 9 10 11 12 13 14 15 16 17 18 19 20 21 22 23 24 25 26 27 28 29 30 31 32 33 34 35 36 37 38 39 40 41 42 43 44 45 46 47 48 49 50
000
ASUS43 KEAX 102111
RWREAX

WEATHER ROUNDUP FOR EASTERN KANSAS AND NORTHWEST MISSOURI
NATIONAL WEATHER SERVICE KANSAS CITY/PLEASANT HILL MO
400 PM CDT THU JUL 10 2014

KSZ040-057-103>105-MOZ028-029-037-043-102200-
...KANSAS CITY METROPOLITAN AREA...

CITY           SKY/WX    TMP DP  RH WIND       PRES   REMARKS
K.C. INTL      MOSUNNY   83  64  52 S14       30.03F
K.C. DOWNTOWN  MOSUNNY   85  66  53 SE8       30.02F
LEES SUMMIT    MOSUNNY   81  65  58 SE10G20   30.05F
OLATHE - IXD   MOSUNNY   84  66  54 SE17      30.03F
OLATHE - OJC   MOSUNNY   81  68  64 SE13      30.03F
LAWRENCE       MOSUNNY   87  66  49 SE13      30.01F

$$

MOZ001>008-011>017-020>025-030>033-038>040-044>046-053-054-102200-
...NORTHERN AND CENTRAL MISSOURI...

CITY           SKY/WX    TMP DP  RH WIND       PRES   REMARKS
ST. JOSEPH     MOSUNNY   83  68  60 SE14G22   30.03S
MOSBY          CLEAR     81  63  54 SE10G16   30.04F
WARRENSBURG    MOSUNNY   81  63  54 E12       30.05S
WHITEMAN AFB   SUNNY     81  61  49 SE10G18   30.06S
CLINTON        MOSUNNY   82  70  65 SE9       30.06S
SEDALIA        MOSUNNY   82  65  56 SE13      30.08F
WARSAW         NOT AVBL
MARSHALL         N/A     84  66  54 E10G16    30.08F
CHILLICOTHE      N/A     82  58  43 SE13G18   30.07F
MOBERLY        SUNNY     82  55  39 E9        30.10F
KIRKSVILLE     SUNNY     80  58  46 SE8       30.11F

$$

MOZ041-047>049-056>058-063>065-088>090-097-102200-
...EASTERN AND SOUTHERN MISSOURI...

CITY           SKY/WX    TMP DP  RH WIND       PRES   REMARKS
ST. LOUIS INTL MOSUNNY   84  54  35 NE8       30.10F
SPIRIT OF STL  PTSUNNY   82  54  37 VRB5      30.08F
COLUMBIA       MOSUNNY   80  61  52 SE10      30.10F
JEFFERSON CITY PTSUNNY   81  61  50 SE8       30.08F
MEXICO         SUNNY     82  64  54 SE6       30.10F
HANNIBAL       SUNNY     82  48  30 SE7       30.12S
ROLLA          CLOUDY    78  61  55 E9        30.09F
LEBANON        PTSUNNY   81  63  54 S10       30.09F
OSAGE BEACH    PTSUNNY   81  64  57 E6        30.08F
SPRINGFIELD    CLOUDY    80  66  62 SE10      30.07S
BRANSON        CLOUDY    79  68  69 E6        30.08S
NEVADA         PTSUNNY   82  70  65 E9        30.05F
JOPLIN         MOSUNNY   82  67  60 SE13      30.03F
WEST PLAINS    CLOUDY    78  65  63 SE5       30.11F
PIEDMONT       PTSUNNY   84  63  48 CALM      30.09F
MALDEN         PTSUNNY   88  61  40 CALM      30.06F

$$

IAZ060-094-KSZ022-034>040-054-083-096-NEZ052-066-093-102200-
...KANSAS...SOUTHEAST NEBRASKA AND IOWA...

CITY           SKY/WX    TMP DP  RH WIND       PRES   REMARKS
TOPEKA         SUNNY     86  63  45 SE17      30.00F
MANHATTAN      SUNNY     89  62  40 SE15      29.97F
EMPORIA        SUNNY     82  64  54 S13G22    30.01F
CHANUTE        MOSUNNY   81  67  62 SE12      30.03S
WICHITA        MOSUNNY   83  67  58 S14       29.98F
OMAHA          MOSUNNY   85  64  49 SE22      29.97F
LINCOLN        SUNNY     87  65  47 S14       29.97S
FALLS CITY     SUNNY     85  66  53 SE16      29.99F
LAMONI         SUNNY     81  58  45 S10       30.07S
DES MOINES     MOSUNNY   84  57  39 SE16      30.05F

$$



USA.gov is the U.S. government's official web portal to all federal, state and local government web resources and services.